NO1K Weather Reports


time (UTC)temp
C
wind
direction
speed
KPH
gust
KPH
rain 1hr
cm
rain 24hr
cm
rain mn
cm
humidity
%
barometer
mb
20260506211511 6 173 0.0 4.8 0.05 2.18 2.16 93 1008.3
20260506210031 6 198 1.6 4.8 0.03 2.16 2.13 93 1008.2
20260506204523 6 233 0.0 4.8 0.03 2.16 2.13 93 1008.1
20260506203026 6 184 0.0 1.6 0.03 2.18 2.13 93 1008.1
20260506201510 6 217 0.0 1.6 0.00 2.21 2.11 93 1008.0
20260506200015 6 217 0.0 3.2 0.03 2.26 2.11 93 1008.2
20260506194522 6 212 0.0 1.6 0.05 2.31 2.11 93 1008.2
20260506193036 6 189 0.0 3.2 0.05 2.59 2.11 93 1008.1
20260506191514 6 203 0.0 1.6 0.08 2.59 2.11 93 1008.3
20260506190020 6 135 0.0 6.4 0.05 2.57 2.08 93 1008.2
20260506184530 6 155 1.6 4.8 0.05 2.54 2.06 92 1008.3
20260506183026 6 181 0.0 3.2 0.08 2.54 2.06 93 1008.5
20260506180005 6 197 0.0 1.6 0.18 2.51 2.03 93 1008.4
20260506173014 6 195 0.0 1.6 0.36 2.46 1.98 93 1008.7
20260506170005 6 173 0.0 3.2 0.41 2.34 1.85 93 1009.3
20260506164510 6 116 0.0 3.2 0.36 2.18 1.70 93 1009.4
20260506163017 6 191 0.0 1.6 0.33 2.11 1.63 93 1009.1
20260506161520 6 157 0.0 3.2 0.30 2.03 1.55 92 1009.2
20260506160005 6 197 0.0 3.2 0.28 1.93 1.45 92 1009.5
20260506154510 7 219 0.0 1.6 0.23 1.83 1.32 92 1009.6
20260506153022 7 226 0.0 1.6 0.25 1.78 1.30 92 1009.9
20260506151520 7 226 0.0 1.6 0.23 1.73 1.24 92 1009.8
20260506150013 7 245 0.0 1.6 0.18 1.65 1.17 92 1009.9
20260506144509 7 257 0.0 1.6 0.18 1.60 1.12 92 1009.8
20260506143024 7 200 0.0 3.2 0.13 1.52 1.04 92 1009.9
20260506141524 7 346 0.0 3.2 0.15 1.47 1.02 92 1010.0
20260506140013 6 155 0.0 4.8 0.18 1.47 0.99 92 1009.9
20260506134511 7 310 0.0 4.8 0.18 1.42 0.94 92 1010.1
20260506133016 7 211 0.0 3.2 0.20 1.40 0.91 92 1009.7
20260506131520 8 39 0.0 3.2 0.18 1.32 0.86 92 1010.0
20260506130006 8 46 0.0 1.6 0.15 1.30 0.81 93 1009.9
20260506124514 8 217 0.0 0.0 0.10 1.24 0.76 92 1010.1
20260506123018 8 226 0.0 6.4 0.08 1.19 0.71 93 1010.1
20260506121523 8 22 3.2 12.9 0.05 1.17 0.69 93 1010.5
20260506120009 9 317 3.2 8.0 0.03 1.14 0.66 92 1009.5
20260506113020 10 144 0.0 3.2 0.00 1.12 0.64 92 1009.8
20260506111523 11 171 0.0 3.2 0.00 1.12 0.64 93 1009.7
20260506110013 11 262 0.0 0.0 0.00 1.12 0.64 94 1009.7
20260506104540 11 262 0.0 1.6 0.03 1.12 0.64 94 1009.5
20260506103025 11 262 0.0 0.0 0.03 1.12 0.64 94 1009.1
20260506101526 11 262 0.0 0.0 0.03 1.12 0.64 94 1009.2
20260506100017 11 262 0.0 0.0 0.03 1.12 0.64 94 1008.9
20260506093024 11 52 0.0 0.0 0.00 1.09 0.61 94 1009.1
20260506091508 11 52 0.0 0.0 0.00 1.09 0.61 94 1009.5
20260506090017 11 52 0.0 0.0 0.00 1.09 0.61 94 1009.7
20260506084519 11 52 0.0 0.0 0.00 1.09 0.61 93 1009.6
20260506083014 12 52 0.0 0.0 0.00 1.09 0.61 93 1009.4
20260506081510 12 52 0.0 0.0 0.00 1.09 0.61 93 1009.9
20260506073008 12 52 0.0 0.0 0.00 1.09 0.61 93 1009.6
20260506071512 12 52 0.0 0.0 0.00 1.09 0.61 93 1009.7
20260506044532 13 53 0.0 0.0 0.18 0.66 0.18 92 1010.9
20260506043016 13 53 0.0 0.0 0.03 0.48 0.00 91 1010.2
20260506041516 13 53 0.0 0.0 0.03 0.48 0.00 91 1010.2
20260506040039 13 53 0.0 1.6 0.03 0.48 0.00 92 1009.9
20260506034526 13 53 0.0 0.0 0.03 0.48 0.48 92 1010.0
20260506033014 13 53 0.0 0.0 0.00 0.46 0.46 93 1010.0
20260506031518 13 53 0.0 3.2 0.00 0.46 0.46 93 1009.6
20260506030025 13 221 0.0 0.0 0.00 0.46 0.46 93 1009.3
20260506024536 13 221 0.0 0.0 0.00 0.46 0.46 93 1009.0
20260506023014 13 221 0.0 0.0 0.00 0.46 0.46 93 1008.8
20260506021538 13 221 0.0 0.0 0.00 0.46 0.46 92 1008.9
20260506020024 13 226 0.0 0.0 0.00 0.46 0.46 92 1009.1
20260506014528 13 226 0.0 0.0 0.00 0.46 0.46 92 1009.2
20260506013018 13 226 0.0 0.0 0.00 0.46 0.46 92 1008.5
20260506011527 13 226 0.0 0.0 0.00 0.46 0.46 92 1007.9
20260506010026 13 235 0.0 0.0 0.00 0.46 0.46 92 1007.9
20260506004528 13 235 0.0 0.0 0.00 0.46 0.46 91 1008.0
20260506001522 14 234 0.0 0.0 0.00 0.46 0.46 91 1007.6
20260506000025 14 233 0.0 0.0 0.00 0.46 0.46 91 1007.4
20260505234539 15 240 0.0 0.0 0.00 0.46 0.46 91 1007.8
20260505231504 15 241 0.0 0.0 0.00 0.46 0.46 91 1007.6
20260505224525 15 165 0.0 1.6 0.00 0.46 0.46 91 1007.3
20260505223020 15 206 0.0 0.0 0.00 0.46 0.46 90 1007.3
20260505221504 15 269 0.0 1.6 0.00 0.46 0.46 89 1007.4
20260505220013 15 270 0.0 4.8 0.00 0.46 0.46 89 1007.3
20260505214516 15 268 0.0 1.6 0.00 0.46 0.46 88 1007.1
20260505213022 15 292 0.0 8.0 0.03 0.46 0.46 89 1007.5